GFSMW_700_temp_036.txt.gz
Temp
6 5 6 7 7 7 8 8 7 7 6 6 5 5 5 5 5 5 5 5 5 5 5 4 4 4 4 4 4 4 4 4 4 4 4 4 4 4 4 5 5 4 4
4 3 5 7 7 7 7 7 7 6 6 6 6 5 5 6 6 5 5 4 4 5 5 4 4 4 4 4 4 4 4 4 4 4 3 4 4 4 4 4 4 4 4
5 5 6 7 7 7 7 7 6 6 6 6 6 6 5 5 6 6 6 5 4 4 4 4 4 4 3 3 4 3 3 3 3 3 3 3 4 4 4 4 4 4 4
5 5 6 6 6 6 6 6 6 6 6 6 6 6 6 5 4 5 5 5 5 5 4 3 3 3 4 3 3 3 3 3 3 3 3 3 3 3 3 3 3 3 3
5 5 5 5 6 6 6 6 5 6 6 6 6 6 5 5 5 4 5 5 6 6 4 4 3 3 3 3 3 2 3 3 2 3 2 2 2 2 2 3 2 2 2
4 4 5 4 5 4 4 5 5 5 5 5 5 5 5 5 5 4 4 4 5 5 4 4 3 3 3 2 2 2 2 2 2 2 2 2 2 2 1 1 1 1 1
3 4 3 3 3 4 4 4 4 4 4 4 4 5 5 5 4 4 4 4 3 3 3 3 2 2 2 2 2 2 2 1 2 2 2 2 1 1 1 1 1 2 1
3 2 2 3 3 3 4 4 4 4 4 5 5 4 4 4 4 4 3 3 2 2 2 2 2 2 2 1 1 1 1 1 1 1 1 1 1 1 1 1 1 1 1
2 2 2 3 3 3 4 4 4 4 5 5 5 5 4 4 4 3 2 2 2 2 1 1 1 1 1 1 1 1 0 0 0 0 0 0 1 1 1 1 1 1 1
2 2 2 3 3 4 4 4 4 5 5 5 5 5 4 4 4 3 2 2 1 2 1 1 0 0 -0 -0 -0 -0 -0 -1 -1 -0 -0 -0 -0 -0 0 0 1 0 1
2 2 2 3 3 3 4 4 4 4 4 4 4 4 4 4 4 3 3 3 2 2 0 -1 -1 -1 -1 -1 -1 -1 -1 -2 -1 -2 -1 -1 -0 -0 -0 -0 0 0 0
1 1 1 2 3 3 4 4 4 4 4 4 4 4 4 3 3 3 3 2 1 1 -0 -1 -2 -2 -2 -2 -2 -2 -3 -3 -3 -2 -1 -1 -1 -1 -1 -0 0 -0 -1
0 0 1 2 3 3 4 4 4 4 4 4 4 4 4 3 3 3 3 2 1 1 0 -1 -2 -2 -3 -2 -2 -2 -4 -4 -4 -4 -2 -1 -1 -1 -1 -1 -1 -0 -1
0 1 2 2 3 4 4 4 4 4 3 4 4 4 3 3 3 4 4 3 2 1 -1 -2 -2 -2 -2 -3 -3 -3 -3 -4 -3 -2 -2 -1 -1 -1 -2 -2 -2 -2 -2
0 1 1 2 3 3 4 4 4 4 3 3 3 3 3 3 3 3 3 2 1 -0 -0 -1 -2 -2 -2 -2 -2 -3 -3 -3 -2 -2 -2 -2 -2 -2 -2 -2 -2 -3 -2
1 1 1 2 2 3 3 4 3 3 3 3 3 3 3 3 2 2 1 0 0 -0 -1 -1 -1 -1 -2 -2 -2 -2 -2 -2 -2 -2 -2 -4 -3 -3 -2 -3 -3 -3 -3
1 1 1 1 1 2 3 3 3 3 2 3 3 2 2 2 1 1 0 0 -0 -1 -1 -1 -1 -1 -2 -2 -2 -3 -3 -3 -3 -3 -4 -3 -3 -3 -3 -3 -4 -4 -4
0 1 1 1 1 2 2 2 3 2 2 2 2 1 1 0 0 -0 -0 -0 -1 -1 -1 -1 -2 -2 -2 -3 -3 -3 -3 -4 -3 -4 -3 -4 -4 -3 -3 -4 -4 -4 -4
0 0 0 1 1 2 1 1 2 2 2 2 2 1 1 0 0 0 -0 -1 -1 -2 -2 -2 -2 -3 -4 -5 -4 -4 -4 -4 -4 -4 -4 -4 -4 -4 -4 -3 -3 -4 -4
-0 -0 -0 0 1 1 1 1 1 1 1 1 1 1 0 0 0 -0 -1 -1 -1 -2 -2 -2 -3 -2 -2 -2 -2 -2 -3 -3 -4 -4 -4 -4 -3 -3 -3 -3 -3 -4 -4
-1 -1 -0 -0 0 -0 0 0 0 0 0 0 0 0 -0 -0 -1 -1 -1 -1 -2 -2 -2 -2 -2 -2 -2 -2 -2 -3 -3 -2 -3 -2 -2 -2 -2 -3 -3 -4 -4 -4 -4
-2 -1 -1 -1 -1 -1 -0 -0 -0 -0 -0 -0 -0 -0 -1 -1 -1 -1 -2 -2 -2 -2 -2 -2 -2 -2 -2 -2 -2 -2 -2 -2 -2 -2 -2 -2 -2 -2 -3 -3 -4 -4 -4
-2 -2 -1 -1 -2 -1 -1 -1 -1 -1 -1 -1 -1 -1 -1 -1 -2 -2 -2 -2 -2 -2 -2 -2 -2 -2 -2 -2 -1 -1 -1 -1 -1 -1 -1 -1 -2 -2 -3 -4 -4 -5 -5
-2 -2 -3 -2 -2 -2 -2 -2 -2 -1 -1 -1 -1 -2 -2 -2 -2 -2 -2 -2 -2 -2 -2 -2 -2 -2 -2 -2 -2 -1 -1 -2 -2 -2 -2 -2 -3 -4 -4 -5 -5 -6 -6
-2 -2 -2 -3 -3 -3 -3 -3 -2 -2 -2 -2 -2 -2 -2 -2 -2 -3 -3 -3 -3 -3 -2 -2 -2 -2 -2 -2 -2 -1 -1 -1 -1 -1 -2 -3 -3 -4 -5 -5 -6 -7 -8
-1 -2 -2 -3 -3 -3 -3 -3 -3 -3 -2 -2 -2 -2 -2 -3 -3 -3 -3 -3 -3 -3 -3 -3 -3 -3 -2 -2 -2 -1 -1 -2 -2 -2 -3 -4 -5 -5 -6 -7 -7 -8 -9

GFSMW_700_temp_039.txt.gz
Temp
5 6 6 6 6 6 6 7 7 7 7 7 7 7 6 5 5 5 5 5 5 5 5 5 4 4 4 4 4 4 4 4 3 3 4 4 4 4 4 4 4 4 4
5 5 5 6 7 7 6 6 6 6 6 6 6 7 7 7 6 6 5 5 4 4 4 4 5 4 4 4 4 3 3 4 3 3 3 3 3 3 4 4 4 4 4
5 5 6 6 7 7 6 6 6 6 6 6 6 6 6 6 6 6 6 5 4 4 3 4 4 4 4 4 3 3 3 3 3 3 2 2 3 3 3 3 3 3 3
5 5 5 6 6 5 6 6 6 6 6 6 6 6 6 6 5 6 6 6 5 5 4 3 3 3 3 4 4 3 3 3 3 2 2 2 2 2 2 2 3 3 3
4 5 5 6 6 5 5 6 6 6 5 5 5 6 6 5 5 5 5 5 5 5 5 5 4 3 3 3 3 3 3 2 2 2 2 2 2 2 2 2 2 2 2
5 5 5 5 5 5 5 5 5 5 5 5 5 5 5 5 5 5 5 5 5 5 5 5 5 4 3 3 2 2 2 2 2 1 2 1 1 1 1 1 1 1 1
4 4 4 4 4 4 4 4 4 5 5 5 5 5 5 5 5 5 5 4 4 4 3 3 4 4 3 2 2 2 2 1 1 1 1 1 1 1 0 0 1 1 1
4 3 3 3 3 3 3 4 4 4 4 4 5 5 5 5 5 5 4 4 3 3 3 3 2 2 2 2 2 2 1 1 1 0 0 0 0 -1 -0 -0 -0 -0 -0
2 2 2 2 3 3 3 4 4 4 5 5 5 5 5 5 5 5 4 4 4 3 3 2 2 1 1 0 0 0 0 0 0 0 -0 -1 -1 -1 -1 -1 -1 -1 -1
2 2 2 2 3 3 3 4 4 4 4 5 5 5 5 5 5 5 4 4 4 4 4 2 1 1 0 0 -0 -1 -1 -1 -1 -1 -1 -1 -2 -2 -2 -2 -1 -1 -1
2 1 2 2 3 3 3 4 4 4 4 5 4 4 5 5 5 5 5 4 3 3 3 2 1 1 -0 -1 -1 -2 -2 -2 -2 -2 -2 -2 -3 -3 -3 -2 -2 -2 -1
1 1 1 2 3 3 3 3 4 4 4 4 4 4 4 4 4 4 4 3 3 3 2 1 1 -0 -1 -0 -2 -3 -3 -2 -2 -2 -4 -3 -3 -4 -2 -4 -3 -2 -2
1 1 1 2 3 2 3 3 4 4 4 4 4 4 4 4 3 3 3 3 3 2 2 1 1 0 0 -1 -2 -2 -2 -2 -3 -3 -4 -4 -3 -3 -3 -2 -2 -3 -2
0 0 1 2 2 3 3 4 4 5 4 4 4 3 3 4 3 3 3 3 3 2 1 1 1 0 -0 -1 -1 -1 -1 -2 -2 -3 -3 -3 -2 -2 -2 -3 -3 -3 -3
0 0 1 1 2 2 3 4 4 4 4 4 3 3 3 4 3 3 3 3 2 2 1 1 0 -0 -0 -1 -1 -1 -1 -2 -2 -3 -2 -3 -3 -2 -4 -3 -4 -3 -3
0 1 1 1 1 2 3 3 4 3 3 3 3 3 3 3 3 3 2 2 1 1 1 0 0 -0 -0 -0 -1 -1 -2 -2 -2 -2 -2 -2 -3 -4 -4 -4 -4 -4 -4
0 1 1 1 1 2 3 3 3 3 2 3 3 3 3 2 2 2 1 1 0 -0 0 -0 -1 -1 -1 -1 -2 -2 -2 -2 -2 -2 -2 -4 -4 -4 -4 -4 -4 -4 -4
0 1 1 1 1 1 2 3 2 2 2 3 3 3 3 2 1 1 1 0 -0 -1 -1 -1 -1 -1 -2 -2 -2 -2 -3 -3 -4 -4 -4 -4 -4 -4 -4 -4 -4 -5 -4
0 0 0 0 1 1 2 2 2 1 1 2 2 2 2 2 1 1 1 0 -0 -1 -2 -1 -2 -2 -2 -2 -2 -2 -2 -2 -3 -3 -3 -3 -3 -4 -3 -4 -4 -4 -4
-1 -0 -0 0 1 1 1 1 1 1 1 1 1 1 1 1 1 0 -0 -1 -1 -1 -1 -1 -1 -1 -1 -1 -1 -1 -1 -1 -1 -1 -2 -2 -3 -3 -3 -3 -3 -4 -4
-1 -1 -0 -0 0 -0 0 0 1 1 1 0 0 0 0 0 -0 -0 -1 -1 -1 -1 -1 -1 -1 -1 -1 -1 -1 -1 -1 -1 -1 -1 -1 -1 -1 -1 -2 -2 -2 -3 -3
-1 -1 -1 -1 -1 -1 -0 -0 -0 -0 -0 -0 -0 -0 -1 -1 -1 -1 -1 -1 -1 -2 -2 -2 -2 -2 -1 -1 -1 -1 -1 -0 -0 -0 -0 -1 -1 -1 -2 -2 -3 -4 -4
-2 -2 -2 -2 -2 -1 -1 -1 -1 -1 -1 -1 -1 -1 -1 -1 -2 -2 -2 -2 -2 -2 -2 -2 -2 -2 -1 -1 -1 -1 -1 -1 -1 -1 -1 -1 -1 -1 -2 -3 -3 -4 -5
-2 -2 -3 -2 -2 -2 -2 -2 -1 -1 -1 -1 -1 -1 -2 -2 -2 -2 -2 -2 -2 -2 -3 -3 -2 -2 -2 -2 -1 -1 -1 -1 -1 -1 -2 -2 -2 -2 -3 -4 -4 -5 -6
-2 -2 -2 -2 -3 -3 -3 -3 -3 -2 -2 -2 -2 -2 -2 -2 -2 -2 -2 -3 -3 -3 -3 -3 -3 -3 -2 -2 -2 -2 -2 -2 -2 -2 -2 -2 -3 -3 -4 -5 -6 -7 -8
-2 -1 -2 -2 -2 -4 -4 -4 -4 -3 -3 -3 -2 -3 -3 -3 -3 -3 -3 -3 -3 -3 -3 -3 -3 -3 -3 -3 -2 -2 -2 -2 -2 -2 -2 -3 -4 -4 -5 -6 -7 -8 -8

GFSMW_700_temp_045.txt.gz
Temp
5 5 5 5 6 6 6 7 7 6 6 6 7 7 7 6 6 6 6 6 6 5 5 5 5 5 5 4 4 4 4 4 3 3 3 3 3 3 3 3 3 3 3
5 5 5 5 5 5 6 6 6 6 6 6 6 6 6 6 6 6 6 6 5 5 5 5 5 4 5 4 4 4 4 4 4 3 2 3 3 3 2 2 2 2 2
4 5 5 5 5 5 5 5 6 5 5 5 6 6 6 6 6 6 6 6 6 5 5 5 5 5 5 4 4 4 4 3 4 3 3 3 3 3 3 2 2 2 2
5 5 5 5 4 4 5 5 5 5 5 5 5 5 6 6 6 6 6 6 6 5 5 5 4 4 4 4 3 3 3 3 3 3 3 3 3 2 3 2 1 2 1
5 5 5 4 4 4 5 5 5 5 5 5 5 5 5 5 6 6 6 6 5 5 5 5 4 4 3 3 3 3 3 3 3 3 2 2 2 2 1 2 2 1 1
4 4 4 5 5 5 5 5 5 5 5 5 5 5 5 5 5 5 5 5 5 5 4 4 4 4 4 3 3 3 3 3 2 2 2 1 1 1 1 1 1 1 1
4 4 4 4 4 4 4 5 5 5 5 5 5 5 5 5 5 5 5 5 5 4 4 4 4 4 4 3 3 3 2 2 2 1 1 1 1 1 0 -0 -0 -1 -1
4 4 4 4 4 4 4 4 4 4 4 4 4 4 4 4 5 4 5 5 5 4 4 4 4 4 3 3 3 2 2 2 1 1 1 1 0 -0 -1 -1 -1 -1 -1
4 3 3 3 3 3 3 4 4 4 3 4 4 4 4 4 5 5 5 5 5 5 5 4 4 3 3 3 2 2 2 1 1 1 0 0 -0 -1 -1 -1 -2 -2 -2
3 3 3 2 2 2 3 3 3 3 3 3 4 4 4 5 5 5 5 5 5 5 5 4 4 4 3 3 2 2 2 1 1 0 0 0 -0 -1 -1 -2 -3 -3 -3
3 3 2 2 1 2 2 2 3 3 3 4 4 4 4 4 4 4 4 4 4 4 4 4 4 3 3 2 2 2 1 1 0 0 0 0 -1 -1 -2 -2 -2 -2 -3
1 1 1 1 1 1 2 2 2 3 3 4 4 4 4 4 4 4 4 4 4 4 3 3 3 3 3 3 2 2 1 1 1 1 1 -0 -1 -1 -2 -2 -2 -2 -3
1 1 1 1 1 1 1 2 2 3 3 3 3 4 4 4 4 4 4 4 3 3 3 3 2 2 3 2 2 1 1 1 1 1 0 -0 -1 -1 -2 -2 -2 -2 -2
-0 0 0 1 1 1 1 1 2 2 3 3 4 4 4 4 4 4 3 3 3 3 3 3 3 3 2 2 1 1 1 1 1 0 0 -0 -1 -1 -1 -1 -1 -2 -2
-0 -0 -0 0 1 1 1 1 2 2 3 3 3 4 4 3 4 3 3 3 3 3 3 2 2 2 1 1 1 1 1 0 0 -0 -0 -0 -0 -1 -1 -1 -1 -2 -2
-0 -0 -0 0 0 1 1 1 2 2 3 3 3 3 3 3 3 3 3 3 2 2 2 2 1 1 1 1 1 0 -0 -0 -0 -0 -0 -0 -0 -1 -0 -1 -1 -2 -2
-0 0 -0 -0 0 1 1 1 2 2 2 2 2 2 3 3 2 2 2 2 2 1 1 1 0 -0 0 0 0 0 1 1 1 0 0 0 -0 -0 -1 -1 -1 -2 -2
-0 -0 -0 -0 0 0 1 1 1 1 2 2 2 2 2 2 2 2 2 2 2 1 0 -0 -0 -0 0 0 1 1 1 1 1 1 1 0 0 -0 -0 -1 -1 -2 -2
-1 -0 -1 -0 -0 0 0 1 1 1 1 1 2 2 2 2 2 2 2 2 1 0 -1 -1 -0 0 0 -0 -0 0 0 0 0 0 0 -0 -0 -0 -1 -1 -1 -1 -1
-1 -1 -1 -1 -0 -0 0 0 0 1 1 1 1 1 1 1 1 1 1 1 -0 -0 -1 -1 -1 -1 -1 -0 -0 -0 -0 -0 -0 -0 -0 -0 -0 -0 -0 -0 -0 -1 -1
-1 -1 -1 -1 -1 -1 -0 -0 -0 0 0 0 0 1 1 0 0 0 -0 -0 0 -0 -0 -1 -1 -1 -1 -1 -1 -1 -1 -1 -1 -1 -1 -1 -1 -1 -1 -1 -1 -1 -1
-1 -2 -2 -2 -1 -1 -1 -1 -1 -0 -0 -0 -0 -0 -0 -0 -0 -0 -1 -1 -1 -1 -1 -1 -1 -1 -1 -1 -1 -1 -1 -1 -1 -1 -1 -1 -1 -1 -1 -1 -1 -1 -2
-2 -2 -2 -2 -2 -2 -2 -1 -1 -1 -1 -1 -1 -1 -1 -1 -1 -1 -1 -1 -2 -2 -2 -2 -2 -2 -2 -2 -1 -1 -1 -2 -2 -2 -2 -2 -2 -1 -1 -2 -2 -2 -3
-2 -2 -2 -3 -3 -3 -2 -2 -2 -2 -2 -1 -1 -1 -1 -1 -1 -2 -2 -2 -2 -2 -2 -2 -2 -2 -2 -2 -2 -2 -2 -2 -2 -2 -2 -2 -2 -2 -2 -2 -3 -3 -4
-2 -2 -2 -3 -3 -3 -3 -3 -3 -3 -2 -2 -2 -2 -2 -2 -2 -2 -2 -2 -2 -3 -3 -3 -2 -2 -2 -3 -3 -3 -3 -3 -3 -3 -2 -2 -2 -2 -3 -3 -4 -4 -5
-3 -3 -3 -3 -3 -3 -3 -3 -3 -3 -3 -3 -3 -3 -2 -2 -3 -3 -3 -3 -3 -3 -3 -3 -3 -3 -3 -3 -3 -3 -3 -3 -3 -3 -3 -3 -3 -3 -4 -4 -5 -6 -6

GFSMW_700_temp_051.txt.gz
Temp
5 5 5 5 5 6 6 6 6 6 6 6 6 6 6 6 6 6 6 6 6 5 5 6 6 5 5 5 5 5 4 4 4 4 4 4 4 4 3 3 3 3 3
4 4 4 5 5 5 5 5 6 6 6 6 6 6 6 6 6 6 6 6 6 6 6 6 6 5 5 5 5 4 4 4 4 4 4 5 4 4 4 3 3 3 2
4 4 4 4 4 4 4 5 5 6 6 6 6 6 6 6 6 6 6 6 6 6 6 5 5 5 5 5 5 5 4 4 4 4 4 4 4 4 4 3 3 3 3
4 3 4 4 4 4 4 4 5 5 5 5 5 5 5 5 5 5 6 6 5 6 6 5 5 5 5 5 5 4 4 4 4 4 4 3 3 3 3 3 2 2 2
3 4 4 4 4 4 4 5 5 5 5 5 4 4 5 5 5 5 5 5 5 5 6 6 5 5 5 5 5 4 4 4 4 3 3 3 2 2 2 2 2 2 1
1 2 4 4 4 4 4 4 4 4 4 4 4 4 5 5 5 5 5 5 5 5 5 5 5 5 5 4 4 4 4 3 3 3 2 2 2 2 2 2 2 2 1
3 3 4 4 4 4 4 4 4 4 4 4 4 5 5 5 5 5 5 5 5 5 5 5 5 4 4 4 4 4 3 3 3 2 2 1 1 1 1 1 1 1 1
4 4 4 4 4 3 3 3 3 3 4 4 4 5 5 5 5 5 5 5 5 5 4 4 4 4 4 4 4 3 3 3 3 2 1 2 1 1 1 1 0 1 0
4 4 4 4 4 3 3 3 3 3 3 4 4 5 5 5 5 4 4 4 4 4 4 4 4 4 4 4 4 4 3 3 3 2 2 1 1 1 0 1 1 0 0
4 4 4 4 4 3 2 2 2 3 3 3 3 4 4 4 4 4 4 4 4 4 4 4 4 4 4 4 4 3 3 3 2 2 2 1 1 1 1 1 1 0 0
3 4 4 3 2 2 2 2 2 2 2 2 2 3 3 3 3 4 4 4 4 4 4 4 3 3 3 3 3 3 3 2 2 1 1 1 1 1 0 0 0 -0 0
3 2 2 1 1 1 2 1 2 1 1 2 2 2 3 3 3 3 4 4 4 3 3 3 3 3 3 3 2 2 2 2 2 2 1 1 1 0 0 0 0 0 1
1 1 1 1 1 0 1 1 1 1 1 1 2 2 3 3 3 3 3 4 3 3 3 4 4 3 3 2 2 2 2 2 1 1 1 1 0 -0 -0 -0 0 0 1
1 1 0 0 0 -0 -0 -0 0 1 1 1 2 2 2 3 3 3 3 4 4 3 4 3 3 3 2 2 2 2 1 1 1 0 0 -0 -1 -1 -0 -0 -0 0 0
0 0 0 -0 -0 -0 -0 -0 -0 0 1 1 1 2 2 3 3 3 3 3 3 3 3 3 3 2 2 2 1 1 1 0 -0 -0 0 0 0 0 1 1 1 1 1
-1 -0 -0 -0 -1 -1 -0 -0 -0 0 0 1 2 2 2 3 3 3 2 3 2 3 2 2 2 2 1 1 1 1 0 0 0 0 1 1 1 1 1 1 1 1 0
-1 -0 -0 -0 -0 -0 -0 -0 0 0 1 1 1 2 2 2 2 2 2 2 2 2 2 1 1 1 0 0 1 1 1 1 0 1 0 1 1 0 0 0 0 0 0
-0 -0 -1 -1 -1 -1 -0 -0 -0 0 0 1 1 1 2 2 1 1 1 1 1 1 1 1 0 -0 -0 0 0 0 0 0 0 0 -0 -0 -0 -0 -0 -0 -0 -0 -0
-0 -1 -1 -1 -1 -1 -1 -0 -0 -0 0 0 1 1 1 1 1 1 1 1 1 1 0 -0 -1 -1 -0 -0 0 -0 -0 -0 -0 -1 -0 -1 -1 -1 -1 -1 -1 -1 -1
-0 -1 -1 -1 -1 -1 -1 -1 -1 -0 -0 0 0 0 1 1 1 1 1 1 0 -0 -1 -1 -1 -1 -1 -1 -1 -1 -1 -1 -1 -1 -1 -1 -1 -1 -1 -1 -1 -1 -1
-1 -1 -1 -1 -1 -1 -1 -1 -1 -1 -0 -0 0 -0 0 0 0 -0 -0 -0 -0 -1 -1 -1 -1 -1 -1 -1 -1 -1 -1 -1 -1 -1 -1 -1 -1 -1 -1 -2 -2 -2 -2
-1 -1 -1 -1 -2 -1 -2 -2 -1 -1 -1 -1 -0 -0 -0 -1 -0 -1 -1 -1 -1 -1 -1 -1 -1 -1 -2 -2 -2 -2 -2 -2 -2 -2 -2 -2 -2 -2 -2 -2 -2 -2 -2
-2 -2 -2 -2 -2 -2 -2 -2 -2 -2 -1 -1 -1 -1 -1 -1 -1 -1 -1 -1 -2 -2 -2 -2 -2 -2 -2 -2 -2 -2 -2 -3 -3 -2 -2 -2 -2 -2 -2 -2 -2 -2 -3
-2 -2 -2 -2 -2 -2 -2 -3 -2 -2 -2 -2 -2 -2 -2 -2 -2 -2 -2 -2 -2 -2 -2 -2 -2 -2 -2 -3 -3 -3 -3 -3 -3 -3 -3 -3 -3 -3 -3 -3 -3 -3 -3
-3 -3 -2 -2 -2 -2 -3 -3 -3 -3 -3 -3 -3 -3 -3 -2 -2 -2 -2 -2 -2 -3 -3 -3 -3 -3 -3 -3 -3 -3 -4 -3 -4 -4 -4 -4 -4 -4 -4 -4 -4 -4 -4
-2 -3 -3 -3 -3 -3 -3 -3 -3 -3 -3 -3 -3 -3 -3 -3 -3 -3 -3 -3 -3 -3 -3 -3 -3 -3 -3 -3 -4 -4 -4 -4 -4 -4 -4 -4 -4 -5 -5 -5 -5 -5 -5

GFSMW_700_temp_057.txt.gz
Temp
3 4 5 5 5 5 5 6 6 6 6 6 6 7 6 6 6 6 6 6 6 6 6 6 6 6 5 5 5 5 5 5 5 5 4 4 4 4 4 4 4 3 3
3 4 4 5 5 5 5 5 6 6 6 6 6 6 6 6 6 6 6 6 6 6 6 6 6 6 5 5 5 5 5 5 4 4 4 4 4 3 4 4 3 3 3
3 3 4 5 5 5 5 5 5 5 5 6 6 6 6 6 6 6 6 6 6 5 5 5 6 6 5 6 5 5 5 5 5 4 4 3 4 4 3 4 4 3 2
3 3 4 4 5 5 5 5 5 5 5 5 5 5 5 5 6 5 5 5 5 5 5 5 5 6 6 6 5 5 5 5 4 4 4 4 3 3 3 3 3 3 2
3 3 2 4 4 4 5 5 5 5 5 5 5 5 5 5 5 5 5 5 5 5 5 5 5 5 6 6 6 5 5 4 4 4 4 4 4 3 3 3 2 2 2
3 3 3 3 4 4 5 4 4 4 5 5 5 5 5 5 4 4 5 5 5 5 5 6 6 6 6 5 5 5 4 4 4 4 4 3 3 3 2 2 1 2 2
2 2 3 3 3 3 4 4 4 4 4 4 4 4 4 4 4 4 4 5 5 5 5 5 6 5 5 5 5 4 4 4 4 4 4 3 3 2 0 1 1 2 2
3 2 2 3 3 3 3 3 3 3 3 3 3 4 4 4 4 4 4 4 5 5 5 5 5 5 5 5 5 4 4 4 4 4 4 3 3 3 2 -0 -0 -1 1
3 3 3 2 3 2 2 2 2 3 3 3 3 3 3 3 3 3 4 4 5 5 5 5 5 5 4 4 4 4 4 4 4 4 4 3 3 2 2 2 0 0 0
3 3 3 3 3 3 2 1 1 2 2 2 2 3 3 3 3 3 4 4 4 5 4 4 4 4 4 4 4 4 4 4 3 3 3 3 2 2 2 1 0 0 -0
3 3 4 4 4 4 3 3 1 1 1 1 1 2 2 3 3 3 3 3 3 4 4 4 4 4 4 4 4 3 3 3 3 3 3 2 2 2 1 1 1 0 0
3 3 3 3 3 3 3 3 2 1 1 1 1 1 2 2 2 2 3 3 3 3 4 4 4 4 4 4 3 3 3 2 2 2 2 2 2 2 1 1 1 0 0
3 2 2 3 3 3 3 3 2 2 1 0 0 1 1 1 2 2 2 2 3 3 3 3 3 3 3 3 3 3 2 2 2 2 1 2 1 1 1 1 0 0 0
1 1 1 2 1 1 2 2 1 1 0 1 1 2 1 2 2 2 2 2 2 3 3 3 3 3 2 2 2 2 2 2 2 2 1 1 1 1 1 1 1 1 1
0 1 1 1 1 1 1 1 0 0 0 1 1 1 1 1 1 2 2 2 3 3 3 3 3 3 2 2 2 2 1 1 1 1 1 1 1 1 1 1 1 1 1
0 0 0 0 -0 0 0 0 0 0 0 0 0 0 1 1 1 1 2 2 2 3 3 2 2 2 1 1 1 1 1 1 1 1 0 1 1 1 1 1 1 1 1
-0 0 0 0 -0 -0 0 -0 -0 -0 -0 -0 -0 0 0 1 1 1 1 2 2 2 2 1 1 1 1 1 0 0 0 1 0 0 0 0 1 1 1 0 0 0 0
-0 0 -0 -0 -0 -0 0 0 -0 -0 -0 -0 -0 -0 0 0 1 1 1 1 1 1 0 0 0 0 -0 -0 -0 -1 -0 0 0 0 0 0 0 0 -0 -0 -0 -0 -0
-0 0 -0 -0 -0 -0 -0 -0 -0 -1 -1 -1 -0 -0 -0 0 0 1 1 1 1 -0 -0 -0 -1 -1 -1 -1 -1 -1 -1 -0 -0 -0 -0 -0 -0 -0 -0 -0 -0 -0 -1
-0 -0 -0 -0 -1 -0 -0 -1 -1 -1 -1 -1 -1 -1 -1 -0 -0 0 0 0 -0 -1 -1 -1 -1 -1 -2 -1 -1 -1 -1 -1 -1 -1 -1 -1 -1 -1 -1 -1 -1 -1 -1
-1 -1 -1 -1 -1 -0 -0 -1 -1 -1 -1 -1 -1 -1 -1 -1 -0 -0 -0 -0 -1 -1 -1 -1 -1 -2 -2 -2 -1 -1 -1 -1 -2 -1 -1 -1 -1 -1 -1 -1 -1 -2 -2
-2 -1 -1 -1 -1 -1 -1 -1 -1 -1 -1 -1 -1 -1 -1 -1 -1 -1 -1 -0 -1 -1 -1 -2 -2 -2 -2 -2 -2 -2 -2 -2 -2 -2 -2 -2 -2 -2 -2 -2 -2 -2 -2
-3 -2 -2 -2 -2 -1 -1 -2 -2 -2 -2 -2 -2 -2 -2 -2 -1 -1 -1 -1 -1 -1 -2 -2 -2 -2 -2 -2 -2 -2 -2 -2 -2 -2 -2 -2 -2 -3 -3 -3 -3 -3 -3
-3 -3 -3 -2 -2 -2 -2 -2 -2 -2 -2 -2 -2 -2 -3 -2 -2 -3 -2 -2 -1 -2 -2 -2 -3 -3 -3 -3 -3 -3 -3 -3 -3 -3 -3 -3 -3 -3 -3 -3 -4 -4 -4
-3 -3 -3 -3 -3 -3 -3 -2 -2 -2 -2 -3 -3 -3 -4 -4 -3 -4 -4 -3 -3 -3 -3 -3 -3 -3 -3 -3 -3 -3 -3 -3 -3 -3 -3 -4 -4 -4 -4 -4 -4 -5 -5
-3 -3 -3 -3 -3 -3 -3 -3 -3 -3 -4 -3 -3 -3 -3 -3 -4 -4 -5 -4 -3 -3 -3 -3 -3 -3 -4 -4 -4 -4 -4 -4 -4 -4 -4 -4 -4 -4 -5 -5 -5 -5 -5